| time (UTC) | temp C | wind direction | speed KPH | gust KPH | rain 1hr cm | rain 24hr cm | rain mn cm | humidity % | barometer mb |
| 20260508073714 | 4 | 130 | 1.6 | 1.6 | 0.00 | 0.00 | 0.00 | 85 | 1011.8 |
| 20260508073213 | 4 | 169 | 0.0 | 0.0 | 0.00 | 0.00 | 0.00 | 85 | 1011.8 |
| 20260508072708 | 4 | 169 | 0.0 | 0.0 | 0.00 | 0.00 | 0.00 | 85 | 1011.8 |
| 20260508072205 | 4 | 169 | 0.0 | 0.0 | 0.00 | 0.00 | 0.00 | 85 | 1011.7 |
| 20260508071702 | 4 | 171 | 0.0 | 0.0 | 0.00 | 0.00 | 0.00 | 84 | 1012.0 |
| 20260508071201 | 4 | 200 | 1.6 | 3.2 | 0.00 | 0.00 | 0.00 | 84 | 1011.8 |
| 20260508070658 | 4 | 105 | 3.2 | 3.2 | 0.00 | 0.00 | 0.00 | 84 | 1011.7 |
| 20260508070157 | 4 | 131 | 1.6 | 1.6 | 0.00 | 0.00 | 0.00 | 84 | 1011.6 |
| 20260508065653 | 4 | 157 | 1.6 | 1.6 | 0.00 | 0.00 | 0.00 | 83 | 1011.5 |
| 20260508065151 | 4 | 160 | 0.0 | 0.0 | 0.00 | 0.00 | 0.00 | 83 | 1011.6 |
| 20260508064648 | 4 | 159 | 0.0 | 1.6 | 0.00 | 0.00 | 0.00 | 83 | 1011.7 |
| 20260508064147 | 4 | 182 | 0.0 | 0.0 | 0.00 | 0.00 | 0.00 | 82 | 1011.4 |
| 20260508063644 | 4 | 147 | 0.0 | 1.6 | 0.00 | 0.00 | 0.00 | 82 | 1011.5 |
| 20260508063141 | 4 | 164 | 0.0 | 0.0 | 0.00 | 0.00 | 0.00 | 81 | 1011.6 |
| 20260508062639 | 4 | 164 | 0.0 | 0.0 | 0.00 | 0.00 | 0.00 | 81 | 1011.4 |
| 20260508062135 | 4 | 163 | 0.0 | 0.0 | 0.00 | 0.00 | 0.00 | 80 | 1011.6 |
| 20260508061633 | 4 | 163 | 0.0 | 0.0 | 0.00 | 0.00 | 0.00 | 80 | 1011.3 |
| 20260508061130 | 4 | 165 | 0.0 | 0.0 | 0.00 | 0.00 | 0.00 | 79 | 1011.5 |
| 20260508060627 | 4 | 81 | 0.0 | 0.0 | 0.00 | 0.00 | 0.00 | 79 | 1011.5 |
| 20260508060124 | 4 | 327 | 4.8 | 4.8 | 0.00 | 0.00 | 0.00 | 79 | 1011.7 |
| 20260508055619 | 5 | 148 | 1.6 | 1.6 | 0.00 | 0.00 | 0.00 | 78 | 1011.6 |
| 20260508055116 | 5 | 168 | 0.0 | 0.0 | 0.00 | 0.00 | 0.00 | 77 | 1011.6 |
| 20260508054613 | 5 | 138 | 1.6 | 3.2 | 0.00 | 0.00 | 0.00 | 76 | 1011.7 |
| 20260508054111 | 5 | 174 | 0.0 | 0.0 | 0.00 | 0.00 | 0.00 | 75 | 1011.5 |
| 20260508053607 | 5 | 175 | 0.0 | 1.6 | 0.00 | 0.00 | 0.00 | 75 | 1011.9 |
| 20260508053105 | 5 | 76 | 4.8 | 4.8 | 0.00 | 0.00 | 0.00 | 75 | 1012.1 |
| 20260508052602 | 5 | 165 | 0.0 | 0.0 | 0.00 | 0.00 | 0.00 | 75 | 1011.9 |
| 20260508052059 | 5 | 159 | 0.0 | 0.0 | 0.00 | 0.00 | 0.00 | 75 | 1011.9 |
| 20260508051555 | 5 | 156 | 0.0 | 0.0 | 0.00 | 0.00 | 0.00 | 75 | 1011.7 |
| 20260508051051 | 5 | 166 | 0.0 | 0.0 | 0.00 | 0.00 | 0.00 | 76 | 1011.9 |
| 20260508050547 | 5 | 144 | 1.6 | 1.6 | 0.00 | 0.00 | 0.00 | 77 | 1011.7 |
| 20260508050045 | 5 | 175 | 0.0 | 0.0 | 0.00 | 0.00 | 0.00 | 79 | 1011.8 |
| 20260508045541 | 4 | 165 | 0.0 | 0.0 | 0.00 | 0.00 | 0.00 | 80 | 1011.9 |
| 20260508045038 | 4 | 121 | 0.0 | 0.0 | 0.00 | 0.00 | 0.00 | 82 | 1011.8 |
| 20260508044536 | 3 | 84 | 0.0 | 1.6 | 0.00 | 0.00 | 0.00 | 84 | 1012.1 |
| 20260508044031 | 3 | 45 | 4.8 | 4.8 | 0.00 | 0.00 | 0.00 | 84 | 1012.1 |
| 20260508043528 | 3 | 154 | 0.0 | 1.6 | 0.00 | 0.00 | 0.00 | 84 | 1012.1 |
| 20260508043026 | 3 | 167 | 1.6 | 1.6 | 0.00 | 0.00 | 0.00 | 84 | 1012.0 |
| 20260508042522 | 3 | 155 | 0.0 | 0.0 | 0.00 | 0.00 | 0.00 | 84 | 1011.7 |
| 20260508042020 | 3 | 130 | 1.6 | 1.6 | 0.00 | 0.00 | 0.00 | 84 | 1011.6 |
| 20260508041516 | 3 | 175 | 0.0 | 0.0 | 0.00 | 0.00 | 0.00 | 84 | 1011.6 |
| 20260508041013 | 3 | 175 | 0.0 | 0.0 | 0.00 | 0.00 | 0.00 | 84 | 1011.8 |
| 20260508040510 | 3 | 175 | 0.0 | 0.0 | 0.00 | 0.00 | 0.00 | 83 | 1011.8 |
| 20260508040007 | 3 | 175 | 0.0 | 0.0 | 0.00 | 0.05 | 0.05 | 83 | 1011.7 |
| 20260508035504 | 3 | 175 | 0.0 | 0.0 | 0.00 | 0.05 | 0.05 | 83 | 1011.7 |
| 20260508035001 | 3 | 175 | 0.0 | 0.0 | 0.00 | 0.05 | 0.05 | 83 | 1011.6 |
| 20260508034458 | 3 | 176 | 0.0 | 0.0 | 0.00 | 0.05 | 0.05 | 82 | 1011.8 |
| 20260508033955 | 3 | 176 | 0.0 | 0.0 | 0.00 | 0.05 | 0.05 | 82 | 1011.8 |
| 20260508033453 | 3 | 176 | 0.0 | 0.0 | 0.00 | 0.05 | 0.05 | 82 | 1011.8 |
| 20260508032950 | 3 | 177 | 0.0 | 0.0 | 0.00 | 0.05 | 0.05 | 82 | 1011.8 |
| 20260508032447 | 3 | 153 | 0.0 | 0.0 | 0.00 | 0.05 | 0.05 | 81 | 1011.6 |
| 20260508031944 | 3 | 155 | 1.6 | 1.6 | 0.00 | 0.05 | 0.05 | 81 | 1011.6 |
| 20260508031436 | 3 | 157 | 1.6 | 1.6 | 0.00 | 0.05 | 0.05 | 80 | 1011.3 |
| 20260508030931 | 3 | 147 | 0.0 | 0.0 | 0.00 | 0.05 | 0.05 | 80 | 1011.3 |
| 20260508030429 | 3 | 147 | 0.0 | 0.0 | 0.00 | 0.05 | 0.05 | 80 | 1011.4 |
| 20260508025926 | 3 | 131 | 1.6 | 3.2 | 0.00 | 0.05 | 0.05 | 79 | 1011.1 |
| 20260508025423 | 3 | 169 | 0.0 | 0.0 | 0.00 | 0.05 | 0.05 | 78 | 1011.3 |
| 20260508024919 | 3 | 178 | 1.6 | 1.6 | 0.00 | 0.05 | 0.05 | 77 | 1011.3 |
| 20260508024416 | 3 | 156 | 0.0 | 0.0 | 0.00 | 0.05 | 0.05 | 76 | 1010.9 |
| 20260508023913 | 3 | 156 | 0.0 | 0.0 | 0.00 | 0.05 | 0.05 | 76 | 1011.1 |
| 20260508023410 | 3 | 146 | 0.0 | 0.0 | 0.00 | 0.05 | 0.05 | 75 | 1011.1 |
| 20260508022907 | 3 | 97 | 3.2 | 3.2 | 0.00 | 0.05 | 0.05 | 75 | 1011.2 |
| 20260508022402 | 3 | 132 | 3.2 | 3.2 | 0.00 | 0.05 | 0.05 | 74 | 1011.3 |
| 20260508021859 | 3 | 141 | 0.0 | 1.6 | 0.00 | 0.05 | 0.05 | 73 | 1011.2 |
| 20260508021355 | 3 | 103 | 3.2 | 3.2 | 0.00 | 0.05 | 0.05 | 73 | 1011.3 |
| 20260508020851 | 3 | 110 | 3.2 | 3.2 | 0.00 | 0.05 | 0.05 | 73 | 1011.0 |
| 20260508020349 | 3 | 148 | 0.0 | 0.0 | 0.00 | 0.05 | 0.05 | 72 | 1010.9 |
| 20260508015846 | 4 | 149 | 0.0 | 0.0 | 0.00 | 0.05 | 0.05 | 71 | 1011.0 |
| 20260508015344 | 4 | 75 | 3.2 | 3.2 | 0.00 | 0.05 | 0.05 | 71 | 1010.8 |
| 20260508014840 | 5 | 89 | 3.2 | 3.2 | 0.00 | 0.05 | 0.05 | 70 | 1011.2 |
| 20260508014338 | 5 | 124 | 1.6 | 1.6 | 0.00 | 0.05 | 0.05 | 68 | 1011.0 |
| 20260508013838 | 5 | 34 | 3.2 | 3.2 | 0.00 | 0.05 | 0.05 | 66 | 1010.8 |
| 20260508013335 | 5 | 34 | 4.8 | 4.8 | 0.00 | 0.05 | 0.05 | 65 | 1010.8 |
| 20260508012832 | 6 | 28 | 4.8 | 4.8 | 0.00 | 0.05 | 0.05 | 64 | 1010.9 |
| 20260508012329 | 6 | 32 | 4.8 | 4.8 | 0.00 | 0.05 | 0.05 | 63 | 1010.8 |
| 20260508011827 | 6 | 20 | 6.4 | 8.0 | 0.00 | 0.05 | 0.05 | 64 | 1011.0 |
| 20260508011324 | 6 | 45 | 3.2 | 3.2 | 0.00 | 0.05 | 0.05 | 64 | 1010.8 |
| 20260508010821 | 6 | 81 | 3.2 | 3.2 | 0.00 | 0.05 | 0.05 | 64 | 1010.8 |
| 20260508010319 | 6 | 23 | 4.8 | 4.8 | 0.00 | 0.05 | 0.05 | 65 | 1010.9 |
| 20260508005816 | 6 | 94 | 3.2 | 3.2 | 0.00 | 0.05 | 0.05 | 63 | 1010.9 |
| 20260508005312 | 7 | 74 | 1.6 | 3.2 | 0.00 | 0.05 | 0.05 | 60 | 1010.5 |
| 20260508004808 | 7 | 107 | 1.6 | 3.2 | 0.00 | 0.05 | 0.05 | 60 | 1010.8 |
| 20260508004259 | 7 | 38 | 4.8 | 4.8 | 0.00 | 0.05 | 0.05 | 62 | 1010.6 |
| 20260508003755 | 8 | 234 | 0.0 | 1.6 | 0.00 | 0.05 | 0.05 | 58 | 1010.6 |
| 20260508003254 | 8 | 8 | 4.8 | 4.8 | 0.00 | 0.05 | 0.05 | 57 | 1010.4 |
| 20260508002749 | 8 | 66 | 3.2 | 3.2 | 0.00 | 0.05 | 0.05 | 57 | 1010.6 |
| 20260508002247 | 8 | 353 | 4.8 | 4.8 | 0.00 | 0.05 | 0.05 | 56 | 1010.2 |
| 20260508001743 | 8 | 286 | 3.2 | 3.2 | 0.00 | 0.05 | 0.05 | 56 | 1010.3 |
| 20260508001238 | 9 | 96 | 1.6 | 3.2 | 0.00 | 0.05 | 0.05 | 55 | 1010.3 |
| 20260508000735 | 9 | 23 | 3.2 | 3.2 | 0.00 | 0.05 | 0.05 | 57 | 1010.3 |
| 20260508000234 | 9 | 163 | 0.0 | 1.6 | 0.00 | 0.05 | 0.05 | 57 | 1010.2 |
| 20260507235728 | 10 | 124 | 1.6 | 1.6 | 0.00 | 0.05 | 0.05 | 56 | 1010.0 |
| 20260507235226 | 10 | 285 | 8.0 | 9.7 | 0.00 | 0.05 | 0.05 | 52 | 1009.8 |
| 20260507234723 | 10 | 254 | 3.2 | 3.2 | 0.00 | 0.05 | 0.05 | 53 | 1010.2 |
| 20260507234219 | 10 | 239 | 1.6 | 1.6 | 0.00 | 0.05 | 0.05 | 52 | 1010.0 |
| 20260507233716 | 10 | 185 | 0.0 | 0.0 | 0.00 | 0.05 | 0.05 | 54 | 1009.8 |
| 20260507233214 | 10 | 194 | 1.6 | 1.6 | 0.00 | 0.05 | 0.05 | 51 | 1009.7 |
| 20260507232710 | 10 | 298 | 4.8 | 4.8 | 0.00 | 0.05 | 0.05 | 50 | 1010.1 |
| 20260507232208 | 10 | 298 | 4.8 | 4.8 | 0.00 | 0.05 | 0.05 | 51 | 1010.0 |
| 20260507231704 | 11 | 328 | 3.2 | 3.2 | 0.00 | 0.05 | 0.05 | 50 | 1010.0 |
| 20260507231201 | 11 | 290 | 4.8 | 8.0 | 0.00 | 0.05 | 0.05 | 49 | 1009.8 |
| 20260507230658 | 11 | 165 | 1.6 | 1.6 | 0.00 | 0.05 | 0.05 | 49 | 1009.7 |
| 20260507230155 | 11 | 329 | 4.8 | 4.8 | 0.00 | 0.05 | 0.05 | 50 | 1009.8 |
| 20260507225655 | 11 | 268 | 3.2 | 4.8 | 0.00 | 0.05 | 0.05 | 49 | 1009.8 |
| 20260507225152 | 11 | 209 | 1.6 | 3.2 | 0.00 | 0.05 | 0.05 | 49 | 1009.8 |
| 20260507224647 | 12 | 254 | 1.6 | 3.2 | 0.00 | 0.05 | 0.05 | 49 | 1009.8 |
| 20260507224144 | 11 | 345 | 1.6 | 3.2 | 0.00 | 0.05 | 0.05 | 51 | 1009.8 |
| 20260507223640 | 10 | 285 | 1.6 | 3.2 | 0.00 | 0.05 | 0.05 | 51 | 1009.7 |
| 20260507223137 | 10 | 237 | 3.2 | 3.2 | 0.00 | 0.05 | 0.05 | 49 | 1009.8 |
| 20260507222634 | 11 | 330 | 4.8 | 8.0 | 0.00 | 0.05 | 0.05 | 50 | 1009.6 |
| 20260507222130 | 11 | 217 | 1.6 | 3.2 | 0.00 | 0.05 | 0.05 | 50 | 1009.7 |
| 20260507221627 | 11 | 269 | 4.8 | 4.8 | 0.00 | 0.05 | 0.05 | 48 | 1010.0 |
| 20260507221123 | 11 | 147 | 0.0 | 1.6 | 0.00 | 0.05 | 0.05 | 49 | 1009.8 |
| 20260507220620 | 11 | 281 | 9.7 | 11.3 | 0.00 | 0.05 | 0.05 | 47 | 1009.7 |
| 20260507220118 | 11 | 130 | 3.2 | 3.2 | 0.00 | 0.05 | 0.05 | 50 | 1009.8 |
| 20260507215614 | 11 | 0 | 12.9 | 17.7 | 0.00 | 0.05 | 0.05 | 49 | 1009.8 |
| 20260507215112 | 11 | 319 | 4.8 | 8.0 | 0.00 | 0.05 | 0.05 | 49 | 1010.1 |
| 20260507214609 | 11 | 194 | 3.2 | 4.8 | 0.00 | 0.05 | 0.05 | 48 | 1010.2 |
| 20260507214105 | 11 | 290 | 3.2 | 4.8 | 0.00 | 0.05 | 0.05 | 49 | 1010.1 |
| 20260507213601 | 11 | 301 | 4.8 | 8.0 | 0.00 | 0.05 | 0.05 | 49 | 1010.0 |
| 20260507213059 | 12 | 202 | 1.6 | 1.6 | 0.00 | 0.05 | 0.05 | 48 | 1010.2 |
| 20260507212554 | 12 | 300 | 4.8 | 4.8 | 0.00 | 0.05 | 0.05 | 50 | 1010.1 |
| 20260507212051 | 12 | 303 | 8.0 | 11.3 | 0.00 | 0.05 | 0.05 | 47 | 1010.1 |
| 20260507211548 | 12 | 339 | 6.4 | 8.0 | 0.00 | 0.05 | 0.05 | 48 | 1010.1 |
| 20260507211044 | 12 | 332 | 12.9 | 14.5 | 0.00 | 0.05 | 0.05 | 49 | 1010.3 |
| 20260507210542 | 12 | 323 | 11.3 | 16.1 | 0.00 | 0.05 | 0.05 | 49 | 1010.3 |
| 20260507210038 | 13 | 220 | 3.2 | 3.2 | 0.00 | 0.05 | 0.05 | 47 | 1010.1 |
| 20260507205535 | 12 | 253 | 9.7 | 11.3 | 0.00 | 0.05 | 0.05 | 47 | 1009.8 |
| 20260507205031 | 12 | 237 | 9.7 | 12.9 | 0.00 | 0.05 | 0.05 | 47 | 1009.8 |
| 20260507204527 | 12 | 305 | 8.0 | 9.7 | 0.00 | 0.05 | 0.05 | 49 | 1009.7 |
| 20260507204025 | 12 | 237 | 4.8 | 4.8 | 0.00 | 0.05 | 0.05 | 50 | 1010.3 |
| 20260507203523 | 12 | 52 | 6.4 | 9.7 | 0.00 | 0.05 | 0.05 | 51 | 1010.1 |
| 20260507203020 | 11 | 332 | 6.4 | 8.0 | 0.00 | 0.05 | 0.05 | 52 | 1010.0 |
| 20260507202516 | 11 | 299 | 6.4 | 9.7 | 0.00 | 0.05 | 0.05 | 49 | 1010.0 |
| 20260507202012 | 12 | 269 | 9.7 | 14.5 | 0.00 | 0.05 | 0.05 | 48 | 1010.2 |
| 20260507201508 | 12 | 291 | 12.9 | 14.5 | 0.00 | 0.05 | 0.05 | 46 | 1010.1 |
| 20260507201004 | 12 | 289 | 8.0 | 11.3 | 0.00 | 0.05 | 0.05 | 47 | 1010.3 |
| 20260507200500 | 11 | 237 | 6.4 | 8.0 | 0.00 | 0.05 | 0.05 | 49 | 1010.0 |
| 20260507195955 | 11 | 271 | 6.4 | 9.7 | 0.00 | 0.05 | 0.05 | 49 | 1010.2 |
| 20260507195454 | 12 | 280 | 14.5 | 17.7 | 0.00 | 0.05 | 0.05 | 46 | 1010.3 |
| 20260507194951 | 12 | 352 | 11.3 | 14.5 | 0.00 | 0.05 | 0.05 | 47 | 1010.0 |
| 20260507194447 | 12 | 304 | 11.3 | 12.9 | 0.00 | 0.05 | 0.05 | 49 | 1010.2 |
| 20260507193943 | 13 | 273 | 4.8 | 9.7 | 0.00 | 0.05 | 0.05 | 46 | 1010.3 |
| 20260507193440 | 12 | 265 | 6.4 | 9.7 | 0.00 | 0.05 | 0.05 | 47 | 1010.3 |
| 20260507192937 | 13 | 185 | 1.6 | 1.6 | 0.00 | 0.05 | 0.05 | 48 | 1010.4 |
| 20260507192433 | 12 | 9 | 4.8 | 4.8 | 0.00 | 0.05 | 0.05 | 52 | 1010.6 |
| 20260507191930 | 11 | 93 | 3.2 | 4.8 | 0.00 | 0.05 | 0.05 | 53 | 1010.7 |
| 20260507191426 | 11 | 46 | 3.2 | 8.0 | 0.00 | 0.05 | 0.05 | 52 | 1010.7 |
| 20260507190923 | 11 | 304 | 14.5 | 17.7 | 0.00 | 0.05 | 0.05 | 50 | 1010.7 |
| 20260507190421 | 11 | 258 | 9.7 | 11.3 | 0.00 | 0.05 | 0.05 | 49 | 1010.5 |
| 20260507185920 | 11 | 1 | 4.8 | 8.0 | 0.00 | 0.05 | 0.05 | 50 | 1010.6 |
| 20260507185417 | 11 | 197 | 8.0 | 9.7 | 0.00 | 0.05 | 0.05 | 49 | 1010.7 |
| 20260507184913 | 11 | 307 | 4.8 | 8.0 | 0.00 | 0.05 | 0.05 | 51 | 1010.9 |
| 20260507184411 | 11 | 240 | 6.4 | 8.0 | 0.00 | 0.05 | 0.05 | 51 | 1010.8 |
| 20260507183908 | 11 | 170 | 3.2 | 3.2 | 0.00 | 0.05 | 0.05 | 50 | 1010.7 |
| 20260507183405 | 12 | 290 | 6.4 | 8.0 | 0.00 | 0.05 | 0.05 | 49 | 1010.7 |
| 20260507182903 | 11 | 275 | 4.8 | 4.8 | 0.00 | 0.05 | 0.05 | 49 | 1011.0 |
| 20260507182358 | 11 | 243 | 4.8 | 8.0 | 0.00 | 0.05 | 0.05 | 48 | 1011.2 |
| 20260507181855 | 11 | 303 | 16.1 | 20.9 | 0.00 | 0.05 | 0.05 | 48 | 1011.0 |
| 20260507181350 | 11 | 307 | 8.0 | 11.3 | 0.00 | 0.05 | 0.05 | 48 | 1011.0 |
| 20260507180848 | 11 | 292 | 9.7 | 11.3 | 0.00 | 0.05 | 0.05 | 48 | 1010.8 |
| 20260507180344 | 12 | 295 | 8.0 | 11.3 | 0.00 | 0.05 | 0.05 | 48 | 1011.0 |
| 20260507175840 | 11 | 201 | 1.6 | 3.2 | 0.00 | 0.05 | 0.05 | 49 | 1011.2 |
| 20260507175337 | 11 | 318 | 4.8 | 11.3 | 0.00 | 0.05 | 0.05 | 49 | 1011.4 |
| 20260507174835 | 11 | 13 | 4.8 | 8.0 | 0.00 | 0.05 | 0.05 | 49 | 1011.1 |
| 20260507174332 | 11 | 314 | 4.8 | 4.8 | 0.00 | 0.05 | 0.05 | 50 | 1011.3 |
| 20260507173829 | 11 | 345 | 12.9 | 17.7 | 0.00 | 0.05 | 0.05 | 48 | 1011.1 |
| 20260507173326 | 11 | 120 | 3.2 | 4.8 | 0.00 | 0.05 | 0.05 | 50 | 1011.2 |
| 20260507172822 | 11 | 221 | 3.2 | 3.2 | 0.00 | 0.05 | 0.05 | 48 | 1011.2 |
| 20260507172319 | 12 | 291 | 8.0 | 11.3 | 0.00 | 0.05 | 0.05 | 47 | 1011.2 |
| 20260507171815 | 12 | 201 | 1.6 | 1.6 | 0.00 | 0.05 | 0.05 | 48 | 1011.2 |
| 20260507171312 | 12 | 237 | 4.8 | 9.7 | 0.00 | 0.05 | 0.05 | 47 | 1011.2 |
| 20260507170809 | 12 | 261 | 4.8 | 8.0 | 0.00 | 0.05 | 0.05 | 48 | 1011.3 |
| 20260507170306 | 12 | 296 | 9.7 | 14.5 | 0.00 | 0.05 | 0.05 | 46 | 1011.4 |
| 20260507165801 | 11 | 208 | 8.0 | 11.3 | 0.00 | 0.05 | 0.05 | 51 | 1011.6 |
| 20260507165258 | 11 | 258 | 14.5 | 17.7 | 0.00 | 0.05 | 0.05 | 50 | 1011.4 |
| 20260507164754 | 11 | 302 | 8.0 | 11.3 | 0.00 | 0.05 | 0.05 | 49 | 1011.6 |
| 20260507164251 | 11 | 316 | 12.9 | 20.9 | 0.00 | 0.05 | 0.05 | 49 | 1011.4 |
| 20260507163748 | 11 | 226 | 9.7 | 12.9 | 0.00 | 0.05 | 0.05 | 49 | 1011.4 |
| 20260507163246 | 11 | 268 | 8.0 | 11.3 | 0.00 | 0.05 | 0.05 | 49 | 1011.8 |
| 20260507162742 | 11 | 247 | 11.3 | 11.3 | 0.00 | 0.05 | 0.05 | 49 | 1011.7 |
| 20260507162238 | 11 | 286 | 11.3 | 14.5 | 0.00 | 0.05 | 0.05 | 48 | 1011.9 |
| 20260507161735 | 11 | 262 | 6.4 | 8.0 | 0.00 | 0.05 | 0.05 | 48 | 1011.7 |
| 20260507161231 | 11 | 253 | 1.6 | 3.2 | 0.00 | 0.05 | 0.05 | 50 | 1011.8 |
| 20260507160727 | 11 | 282 | 8.0 | 9.7 | 0.00 | 0.05 | 0.05 | 49 | 1012.0 |
| 20260507160224 | 11 | 123 | 1.6 | 1.6 | 0.00 | 0.05 | 0.05 | 50 | 1011.9 |
| 20260507155720 | 12 | 294 | 12.9 | 14.5 | 0.00 | 0.05 | 0.05 | 48 | 1012.0 |
| 20260507155216 | 11 | 219 | 6.4 | 9.7 | 0.00 | 0.05 | 0.05 | 51 | 1012.0 |
| 20260507154713 | 10 | 219 | 4.8 | 4.8 | 0.00 | 0.05 | 0.05 | 53 | 1012.3 |
| 20260507154211 | 10 | 281 | 8.0 | 9.7 | 0.00 | 0.05 | 0.05 | 51 | 1012.1 |
| 20260507153707 | 11 | 22 | 4.8 | 8.0 | 0.00 | 0.05 | 0.05 | 50 | 1012.0 |
| 20260507153203 | 11 | 66 | 4.8 | 4.8 | 0.00 | 0.05 | 0.05 | 53 | 1012.2 |
| 20260507152700 | 10 | 113 | 1.6 | 1.6 | 0.00 | 0.05 | 0.05 | 52 | 1012.2 |
| 20260507152156 | 10 | 24 | 6.4 | 8.0 | 0.00 | 0.05 | 0.05 | 52 | 1012.3 |
| 20260507151652 | 11 | 328 | 11.3 | 14.5 | 0.00 | 0.05 | 0.05 | 49 | 1012.2 |
| 20260507151149 | 11 | 164 | 0.0 | 0.0 | 0.00 | 0.05 | 0.05 | 50 | 1012.5 |
| 20260507150646 | 10 | 6 | 4.8 | 4.8 | 0.00 | 0.05 | 0.05 | 50 | 1012.3 |
| 20260507150143 | 10 | 78 | 6.4 | 8.0 | 0.00 | 0.05 | 0.05 | 51 | 1012.5 |
| 20260507145638 | 11 | 99 | 3.2 | 3.2 | 0.00 | 0.05 | 0.05 | 52 | 1012.4 |
| 20260507145136 | 11 | 234 | 4.8 | 4.8 | 0.00 | 0.05 | 0.05 | 47 | 1012.8 |
| 20260507144632 | 11 | 266 | 8.0 | 9.7 | 0.00 | 0.05 | 0.05 | 49 | 1012.7 |
| 20260507144130 | 10 | 151 | 3.2 | 3.2 | 0.00 | 0.05 | 0.05 | 50 | 1012.8 |
| 20260507143626 | 10 | 194 | 1.6 | 1.6 | 0.00 | 0.05 | 0.05 | 48 | 1012.8 |
| 20260507143124 | 10 | 232 | 3.2 | 4.8 | 0.00 | 0.05 | 0.05 | 49 | 1012.8 |
| 20260507142619 | 10 | 279 | 6.4 | 12.9 | 0.00 | 0.05 | 0.05 | 50 | 1012.8 |
| 20260507142116 | 10 | 60 | 3.2 | 3.2 | 0.00 | 0.05 | 0.05 | 50 | 1012.7 |
| 20260507141612 | 10 | 179 | 1.6 | 1.6 | 0.00 | 0.05 | 0.05 | 52 | 1012.8 |
| 20260507141109 | 10 | 301 | 3.2 | 8.0 | 0.00 | 0.05 | 0.05 | 55 | 1012.6 |
| 20260507140606 | 10 | 222 | 4.8 | 4.8 | 0.00 | 0.05 | 0.05 | 56 | 1012.7 |
| 20260507140103 | 9 | 180 | 3.2 | 4.8 | 0.00 | 0.05 | 0.05 | 58 | 1012.8 |
| 20260507135600 | 9 | 343 | 4.8 | 8.0 | 0.00 | 0.05 | 0.05 | 57 | 1013.0 |
| 20260507135058 | 8 | 229 | 3.2 | 4.8 | 0.00 | 0.05 | 0.05 | 62 | 1012.9 |
| 20260507134554 | 8 | 335 | 4.8 | 8.0 | 0.00 | 0.05 | 0.05 | 63 | 1013.1 |
| 20260507134050 | 8 | 162 | 1.6 | 1.6 | 0.00 | 0.05 | 0.05 | 63 | 1013.1 |
| 20260507133546 | 8 | 157 | 1.6 | 1.6 | 0.00 | 0.05 | 0.05 | 64 | 1013.0 |
| 20260507133044 | 7 | 118 | 1.6 | 3.2 | 0.00 | 0.05 | 0.05 | 67 | 1013.1 |
| 20260507132540 | 7 | 204 | 0.0 | 1.6 | 0.00 | 0.05 | 0.05 | 69 | 1013.0 |
| 20260507132036 | 7 | 303 | 6.4 | 8.0 | 0.00 | 0.05 | 0.05 | 68 | 1013.1 |
| 20260507131534 | 7 | 205 | 4.8 | 4.8 | 0.00 | 0.05 | 0.05 | 70 | 1012.9 |
| 20260507131031 | 7 | 108 | 3.2 | 3.2 | 0.00 | 0.05 | 0.05 | 69 | 1013.0 |
| 20260507130528 | 7 | 143 | 1.6 | 1.6 | 0.00 | 0.05 | 0.05 | 70 | 1013.3 |
| 20260507130026 | 7 | 338 | 4.8 | 8.0 | 0.00 | 0.05 | 0.05 | 70 | 1013.5 |
| 20260507125524 | 6 | 94 | 1.6 | 3.2 | 0.00 | 0.05 | 0.05 | 71 | 1013.1 |
| 20260507125021 | 6 | 39 | 4.8 | 4.8 | 0.00 | 0.05 | 0.05 | 72 | 1013.1 |
| 20260507124517 | 6 | 344 | 3.2 | 4.8 | 0.00 | 0.05 | 0.05 | 73 | 1013.5 |
| 20260507124016 | 6 | 324 | 6.4 | 8.0 | 0.00 | 0.05 | 0.05 | 75 | 1013.0 |
| 20260507123513 | 6 | 170 | 0.0 | 0.0 | 0.00 | 0.05 | 0.05 | 77 | 1013.3 |
| 20260507123010 | 6 | 43 | 1.6 | 3.2 | 0.00 | 0.05 | 0.05 | 78 | 1013.5 |
| 20260507122504 | 5 | 122 | 1.6 | 1.6 | 0.00 | 0.05 | 0.05 | 81 | 1013.4 |
| 20260507122001 | 5 | 276 | 4.8 | 4.8 | 0.00 | 0.05 | 0.05 | 83 | 1013.1 |
| 20260507121456 | 5 | 206 | 1.6 | 3.2 | 0.00 | 0.05 | 0.05 | 85 | 1013.4 |
| 20260507120948 | 5 | 199 | 1.6 | 3.2 | 0.00 | 0.05 | 0.05 | 86 | 1013.6 |
| 20260507120444 | 4 | 299 | 3.2 | 3.2 | 0.00 | 0.05 | 0.05 | 87 | 1013.1 |
| 20260507115941 | 4 | 289 | 3.2 | 3.2 | 0.00 | 0.05 | 0.05 | 89 | 1013.0 |
| 20260507115436 | 4 | 195 | 1.6 | 3.2 | 0.00 | 0.05 | 0.05 | 90 | 1012.9 |
| 20260507114932 | 4 | 279 | 3.2 | 3.2 | 0.00 | 0.05 | 0.05 | 90 | 1013.1 |
| 20260507114429 | 4 | 173 | 1.6 | 1.6 | 0.00 | 0.05 | 0.05 | 91 | 1012.9 |
| 20260507113927 | 4 | 168 | 0.0 | 1.6 | 0.00 | 0.05 | 0.05 | 91 | 1013.1 |
| 20260507113423 | 3 | 168 | 1.6 | 1.6 | 0.00 | 0.05 | 0.05 | 91 | 1013.0 |
| 20260507112921 | 3 | 184 | 1.6 | 1.6 | 0.00 | 0.05 | 0.05 | 91 | 1012.9 |
| 20260507112418 | 3 | 163 | 0.0 | 0.0 | 0.00 | 0.05 | 0.05 | 91 | 1013.3 |
| 20260507111915 | 3 | 175 | 1.6 | 1.6 | 0.00 | 0.05 | 0.05 | 91 | 1013.1 |
| 20260507111413 | 3 | 148 | 0.0 | 0.0 | 0.00 | 0.05 | 0.05 | 92 | 1013.0 |
| 20260507110909 | 2 | 141 | 0.0 | 0.0 | 0.00 | 0.05 | 0.05 | 92 | 1012.6 |
| 20260507110405 | 2 | 139 | 0.0 | 0.0 | 0.00 | 0.05 | 0.05 | 92 | 1012.7 |
| 20260507105901 | 2 | 126 | 1.6 | 1.6 | 0.00 | 0.05 | 0.05 | 92 | 1012.9 |
| 20260507105358 | 2 | 125 | 1.6 | 1.6 | 0.00 | 0.05 | 0.05 | 91 | 1012.9 |
| 20260507104855 | 1 | 147 | 0.0 | 1.6 | 0.00 | 0.05 | 0.05 | 91 | 1012.7 |
| 20260507104352 | 1 | 117 | 1.6 | 1.6 | 0.00 | 0.05 | 0.05 | 91 | 1012.9 |
| 20260507103848 | 1 | 128 | 1.6 | 1.6 | 0.00 | 0.05 | 0.05 | 91 | 1012.8 |
| 20260507103344 | 1 | 133 | 0.0 | 0.0 | 0.00 | 0.05 | 0.05 | 91 | 1012.9 |
| 20260507102841 | 1 | 148 | 0.0 | 0.0 | 0.00 | 0.05 | 0.05 | 91 | 1012.9 |
| 20260507102337 | 1 | 147 | 0.0 | 0.0 | 0.00 | 0.05 | 0.05 | 91 | 1012.6 |
| 20260507101833 | 1 | 139 | 1.6 | 1.6 | 0.00 | 0.05 | 0.05 | 91 | 1012.5 |
| 20260507101328 | 1 | 149 | 0.0 | 0.0 | 0.00 | 0.05 | 0.05 | 90 | 1012.7 |
| 20260507100826 | 1 | 162 | 0.0 | 0.0 | 0.00 | 0.05 | 0.05 | 90 | 1012.7 |
| 20260507100324 | 1 | 103 | 3.2 | 3.2 | 0.00 | 0.05 | 0.05 | 90 | 1012.3 |
| 20260507095821 | 1 | 128 | 1.6 | 1.6 | 0.00 | 0.05 | 0.05 | 90 | 1012.5 |
| 20260507095317 | 1 | 117 | 1.6 | 1.6 | 0.00 | 0.05 | 0.05 | 90 | 1012.4 |
| 20260507094815 | 1 | 151 | 0.0 | 0.0 | 0.00 | 0.05 | 0.05 | 90 | 1012.4 |
| 20260507094311 | 2 | 126 | 1.6 | 1.6 | 0.00 | 0.05 | 0.05 | 90 | 1012.6 |
| 20260507093808 | 1 | 91 | 3.2 | 4.8 | 0.00 | 0.05 | 0.05 | 89 | 1012.5 |
| 20260507093307 | 2 | 112 | 1.6 | 1.6 | 0.00 | 0.05 | 0.05 | 89 | 1012.8 |
| 20260507092804 | 2 | 86 | 3.2 | 3.2 | 0.00 | 0.05 | 0.05 | 89 | 1012.7 |
| 20260507092300 | 2 | 128 | 1.6 | 1.6 | 0.00 | 0.05 | 0.05 | 89 | 1012.5 |
| 20260507091757 | 2 | 126 | 1.6 | 1.6 | 0.00 | 0.05 | 0.05 | 88 | 1012.7 |
| 20260507091253 | 2 | 80 | 1.6 | 3.2 | 0.00 | 0.05 | 0.05 | 88 | 1012.7 |
| 20260507090748 | 2 | 111 | 3.2 | 3.2 | 0.00 | 0.05 | 0.05 | 88 | 1012.6 |
| 20260507090245 | 2 | 133 | 1.6 | 1.6 | 0.00 | 0.05 | 0.05 | 87 | 1012.7 |
| 20260507085742 | 2 | 101 | 3.2 | 3.2 | 0.00 | 0.05 | 0.05 | 87 | 1012.6 |
| 20260507085239 | 3 | 138 | 0.0 | 1.6 | 0.00 | 0.05 | 0.05 | 87 | 1012.5 |
| 20260507084736 | 3 | 114 | 1.6 | 1.6 | 0.00 | 0.05 | 0.05 | 87 | 1012.6 |
| 20260507084232 | 3 | 94 | 3.2 | 3.2 | 0.00 | 0.05 | 0.05 | 87 | 1012.6 |
| 20260507083730 | 3 | 52 | 4.8 | 4.8 | 0.00 | 0.05 | 0.05 | 87 | 1012.8 |
| 20260507083226 | 3 | 49 | 4.8 | 8.0 | 0.00 | 0.05 | 0.05 | 86 | 1012.5 |
| 20260507082722 | 3 | 49 | 4.8 | 4.8 | 0.00 | 0.05 | 0.05 | 86 | 1012.4 |
| 20260507082218 | 4 | 118 | 1.6 | 3.2 | 0.00 | 0.05 | 0.05 | 86 | 1012.7 |
| 20260507081715 | 4 | 123 | 1.6 | 1.6 | 0.00 | 0.05 | 0.05 | 86 | 1012.6 |
| 20260507081211 | 4 | 140 | 1.6 | 1.6 | 0.00 | 0.05 | 0.05 | 86 | 1012.5 |
| 20260507080708 | 4 | 135 | 1.6 | 1.6 | 0.00 | 0.05 | 0.05 | 85 | 1012.4 |
| 20260507080204 | 5 | 167 | 0.0 | 0.0 | 0.00 | 0.05 | 0.05 | 85 | 1012.5 |
| 20260507075700 | 5 | 138 | 1.6 | 1.6 | 0.00 | 0.05 | 0.05 | 85 | 1012.6 |
| 20260507075156 | 5 | 137 | 1.6 | 1.6 | 0.00 | 0.05 | 0.05 | 84 | 1012.5 |
| 20260507074653 | 5 | 128 | 3.2 | 3.2 | 0.00 | 0.05 | 0.05 | 84 | 1012.4 |
| 20260507074151 | 5 | 259 | 3.2 | 3.2 | 0.00 | 0.05 | 0.05 | 85 | 1012.6 |